Regional Weather Roundup
Issued by NWS

Home | Current Version | Previous Version | Graphics & Text | Print | Product List | Glossary On
Versions: 1 2 3 4 5 6 7 8 9 10 11 12 13 14 15 16 17 18 19 20 21 22 23 24 25 26 27 28 29 30 31 32 33 34 35 36 37 38 39 40 41 42 43 44 45 46 47 48 49 50
000
ASUS43 KLSX 252059
RWRMO

WEATHER SUMMARY FOR MISSOURI
NATIONAL WEATHER SERVICE SPRINGFIELD MO
400 PM CDT SAT APR 25 2015

NOTE: "FAIR" INDICATES FEW OR NO CLOUDS BELOW 12,000 FEET WITH NO
       SIGNIFICANT WEATHER AND/OR OBSTRUCTIONS TO VISIBILITY.
       CURRENT SKY AND/OR WEATHER CONDITIONS ARE NOT AVAILABLE FOR
       CHILLICOTHE AND FARMINGTON.

MOZ001>031-035>038-043-044-053-054-252200-
...NORTHERN AND WESTERN MISSOURI...

CITY           SKY/WX    TMP DP  RH WIND       PRES   REMARKS
KANSAS CTY INT CLOUDY    54  52  93 N15       29.61R
KANSAS C DTWN  CLOUDY    58  53  84 N13       29.60R
LEE`S SUMMIT   CLOUDY    58  54  86 N14       29.59R
ST JOSEPH      CLOUDY    52  48  86 N12       29.65R
CHILLICOTHE      N/A     52  50  93 N12G18    29.62R
KIRKSVILLE     LGT RAIN  52  51  97 N21G26    29.60R FOG

$$
MOZ066>068-077>081-088>096-101>105-252200-
...SOUTHWEST MISSOURI...

CITY           SKY/WX    TMP DP  RH WIND       PRES   REMARKS
SPRINGFIELD    CLOUDY    72  52  49 W17G25    29.54S
JOPLIN         SUNNY     75  55  49 W20G28    29.56S

$$
MOZ032>034-039>042-045>050-055>058-069>072-252200-
...CENTRAL MISSOURI...

CITY           SKY/WX    TMP DP  RH WIND       PRES   REMARKS
COLUMBIA       LGT RAIN  63  58  83 NW13      29.51R
JEFFERSON CITY LGT RAIN  67  56  67 W13       29.50R
ROLLA          CLOUDY    66  53  63 W12G18    29.51R
SEDALIA        RAIN      63  58  83 NW10      29.54R
OSAGE BEACH    CLOUDY    66  54  63 W13G18    29.53R

$$
MOZ051-052-059>065-252200-
...EAST CENTRAL MISSOURI...

CITY           SKY/WX    TMP DP  RH WIND       PRES   REMARKS
ST LOUIS INTL  CLOUDY    62  57  83 NE10      29.51R HAZE
SPIRIT OF STL  LGT RAIN  64  60  87 N12G22    29.50R FOG
ST CHARLES     CLOUDY    57  54  89 N13       29.52R

$$
MOZ072>076-082>087-097>100-106>115-252200-
...SOUTH CENTRAL AND SOUTHEAST MISSOURI...

CITY           SKY/WX    TMP DP  RH WIND       PRES   REMARKS
CAPE GIRARDEAU MOSUNNY   75  62  64 SW16      29.44F
FARMINGTON     PTSUNNY   75  52  43 W10G17    29.51R
POPLAR BLUFF   PTSUNNY   77  62  59 SW13G23   29.45S
WEST PLAINS    MOSUNNY   78  48  34 W16G26    29.52S

$$


USA.gov is the U.S. government's official web portal to all federal, state and local government web resources and services.